Location: Newark
(43.9494°N, 6.8108°E)
Time: 04:09:03
(UTC+00:00)

deb Explorer IX - Visible Passes

Search period start: 19 October 2019 00:00
Search period end: 29 October 2019 00:00
Orbit: 544 x 1107 km, 38.8° (Epoch: 17 October)

Date Brightness Start Highest point End Pass type
(mag) Time Alt. Az. Time Alt. Az. Time Alt. Az.
19 Oct ? 17:05:12 10° W 17:11:22 42° SSW 17:18:05 10° SE visible
19 Oct ? 18:53:11 10° WSW 18:57:58 20° SSW 19:02:54 10° S visible
20 Oct ? 18:31:19 10° WSW 18:35:57 19° SSW 18:40:45 10° S visible
21 Oct ? 18:09:30 10° WSW 18:13:56 18° SSW 18:18:34 10° S visible
22 Oct ? 17:47:43 10° WSW 17:51:55 18° SSW 17:56:21 10° S visible
23 Oct ? 17:25:58 10° WSW 17:29:55 17° SSW 17:34:07 10° S visible
24 Oct ? 17:04:14 10° WSW 17:07:56 16° SSW 17:11:52 10° S visible
